{"data":{"norad_id":52375,"epoch":"2026-09-20T00:59:39.730848Z","epoch_age_seconds":99251,"freshness":"FRESH","line1":"1 52375U 22045AW  26263.04143207  .00000280  00000+0  19424-4 0  9998","line2":"2 52375  53.1609  21.9921 0000890 111.0749 249.0348 15.34393860245465","mean_motion":15.3439386,"eccentricity":8.9e-5,"inclination_deg":53.1609,"raan_deg":21.9921,"arg_perigee_deg":111.0749,"mean_anomaly_deg":249.0348,"bstar":1.9424e-5,"rev_number":24546,"period_min":93.84813362066,"perigee_km":462.11265323633,"apogee_km":463.33032604749,"semimajor_km":6840.8584896419,"source":"CELESTRAK","updated_at":"2026-09-20T09:00:40.029862Z"}}